Hourly Data Report for October 10, 2015

All times are specified in Local Standard Time (LST). Add 1 hour to adjust for Daylight Saving Time where and when it is observed.

PANGNIRTUNG
NUNAVUT

66°08'36.300" N
65°42'40.500" W
22.60 m
2403049
71826
WXP

Download Data

Hourly Data (October 2015)
Hourly Data Report for October 10, 2015
Temp Definition
°C
Dew Point Temp Definition
°C
Rel Hum Definition
%
Wind Dir Definition
10's deg

Wind Spd Definition
km/h
Visibility Definition
km
Stn Press Definition
kPa
Hmdx Definition


Wind Chill Definition


Weather Definition


TIME
00:00 0.7 -4.4 69 8 31   99.29     LegendNANA
01:00 0.5 -4.2 71 8 29   99.32     LegendNANA
02:00 1.5 -4.6 64 8 32   99.26     LegendNANA
03:00 1.1 -4.7 65 9 37   99.25     LegendNANA
04:00 0.9 -4.6 67 9 36   99.23     LegendNANA
05:00 1.1 -5.1 63 9 33   99.22     LegendNANA
06:00 1.8 -4.6 63 9 29   99.18     LegendNANA
07:00 2.2 -4.4 62 10 33   99.18     LegendNANA
08:00 0.9 -4.0 70 12 38   99.21     LegendNANA
09:00 0.8 -4.0 70 13 38   99.23     LegendNANA
10:00 1.5 -4.7 64 14 33   99.25     LegendNANA
11:00 2.9 -3.6 62 9 21   99.30     LegendNANA
12:00 2.7 -4.0 61 8 14   99.35     LegendNANA
13:00 2.7 -4.2 60 6 15   99.40     LegendNANA
14:00 2.0 -4.4 62 10 13   99.44     LegendNANA
15:00 1.9 -4.5 62 11 16   99.50     LegendNANA
16:00 1.3 -5.1 62 10 17   99.56     LegendNANA
17:00 0.6 -6.3 60 10 12   99.62     LegendNANA
18:00 0.0 -6.1 64 7 19   99.68   -5 LegendNANA
19:00 -0.5 -6.2 66 8 24   99.70   -6 LegendNANA
20:00 -0.7 -6.0 67 7 20   99.73   -6 LegendNANA
21:00 -1.1 -6.2 68 9 10   99.74   -5 LegendNANA
22:00 -0.6 -6.4 65 9 13   99.72   -5 LegendNANA
23:00 -0.5 -6.0 66 8 6   99.70   -3 LegendNANA

Notes on Data Quality.

Legend

  • E = Estimated
  • M = Missing
  • NA = Not Available
  • ‡ = Partner data that is not subject to review by the National Climate Archives
Date modified: